DW4479 Weather Reports


Display with metric or nautical units.
time (UTC)temp
F
wind
direction
speed
MPH
gust
MPH
rain 1hr
in
rain 24hr
in
rain mn
in
humidity
%
barometer
mb
20180121003952 33 293 0.0 0.0 0.00 0.00 0.00 96 1007.6
20180121002453 33 234 0.0 0.0 0.00 0.00 0.00 96 1007.5
20180121000947 33 281 0.0 0.0 0.00 0.00 0.00 96 1007.0
20180120235446 33 261 0.0 0.0 0.00 0.00 0.16 96 1006.8
20180120233942 34 283 0.0 0.0 0.00 0.00 0.16 96 1006.2
20180120232442 34 253 0.0 0.0 0.00 0.00 0.16 96 1006.0
20180120230938 34 242 0.0 0.0 0.00 0.00 0.16 96 1005.5
20180120225436 34 271 0.0 0.0 0.00 0.00 0.16 96 1005.2
20180120223934 34 286 0.0 0.0 0.00 0.00 0.16 96 1004.9
20180120222431 34 296 0.0 0.0 0.00 0.00 0.16 96 1004.6
20180120220933 34 268 0.0 0.0 0.00 0.00 0.16 96 1004.3
20180120215428 34 249 0.0 0.0 0.00 0.00 0.16 96 1004.0
20180120213928 34 272 0.0 0.0 0.00 0.00 0.16 96 1003.7
20180120212429 34 321 0.0 0.0 0.00 0.00 0.16 96 1003.7
20180120210927 35 258 0.0 0.0 0.00 0.00 0.16 96 1003.2
20180120205426 34 283 0.0 0.0 0.00 0.00 0.16 96 1003.0
20180120203928 35 272 0.0 0.0 0.00 0.00 0.16 96 1002.6
20180120202429 35 272 0.0 0.0 0.00 0.00 0.16 95 1002.4
20180120200925 35 250 0.0 0.0 0.00 0.00 0.16 96 1002.0
20180120195426 36 346 0.0 0.0 0.00 0.00 0.16 96 1001.7
20180120193926 35 351 0.0 0.0 0.00 0.00 0.16 96 1001.4
20180120192425 35 46 0.0 0.0 0.00 0.00 0.16 95 1001.0
20180120190924 36 311 0.0 0.0 0.00 0.00 0.16 95 1000.7
20180120185423 36 311 0.0 0.0 0.00 0.00 0.16 95 1000.5
20180120183923 36 309 0.0 0.0 0.00 0.00 0.16 95 1000.0
20180120182423 36 309 0.0 0.0 0.00 0.00 0.16 95 999.8
20180120180924 36 304 0.0 0.0 0.00 0.00 0.16 95 999.4
20180120175424 36 333 0.0 0.0 0.00 0.00 0.16 95 999.0
20180120173921 36 333 0.0 0.0 0.00 0.00 0.15 95 998.8
20180120172424 36 333 0.0 0.0 0.00 0.00 0.15 95 998.8
20180120170920 37 332 0.0 0.0 0.00 0.00 0.15 95 998.3
20180120165419 37 332 0.0 0.0 0.00 0.00 0.15 95 998.3
20180120163919 37 333 0.0 0.0 0.00 0.00 0.15 94 998.1
20180120162422 37 329 0.0 0.0 0.00 0.00 0.14 94 997.9
20180120160918 37 322 0.0 0.0 0.00 0.00 0.14 94 997.8
20180120155419 37 302 0.0 0.0 0.00 0.00 0.13 94 997.5
20180120153917 37 319 0.0 0.0 0.00 0.00 0.13 94 997.5
20180120152416 37 350 0.0 0.0 0.00 0.00 0.11 94 997.2
20180120150917 38 360 0.0 0.0 0.00 0.00 0.09 94 997.1
20180120145415 38 360 0.0 0.0 0.00 0.00 0.08 94 997.0
20180120143917 38 360 0.0 0.0 0.00 0.00 0.07 94 996.9
20180120142414 38 360 0.0 0.0 0.00 0.00 0.06 93 996.6
20180120140915 38 100 0.0 0.0 0.00 0.00 0.06 94 996.4
20180120135416 39 130 0.0 0.0 0.00 0.00 0.05 94 996.3
20180120133913 39 130 0.0 0.0 0.00 0.00 0.03 94 996.5
20180120132413 39 130 0.0 0.0 0.00 0.00 0.02 94 996.5
20180120130912 39 130 0.0 0.0 0.00 0.00 0.02 94 996.4
20180120125411 39 130 0.0 0.0 0.00 0.00 0.02 94 996.4
20180120123909 39 130 0.0 0.0 0.00 0.00 0.02 94 996.6
20180120122406 38 130 0.0 0.0 0.00 0.00 0.02 94 996.9
20180120120904 38 130 0.0 0.0 0.00 0.00 0.00 94 997.2
20180120115402 38 130 0.0 0.0 0.00 0.00 0.00 94 997.6
20180120113903 38 130 0.0 0.0 0.00 0.00 0.00 95 997.7
20180120112402 38 130 0.0 0.0 0.00 0.00 0.00 95 997.8
20180120110855 37 130 0.0 0.0 0.00 0.00 0.00 95 997.9
20180120105354 37 130 0.0 0.0 0.00 0.00 0.00 95 998.1
20180120103849 36 130 0.0 0.0 0.00 0.00 0.00 94 998.5
20180120102348 36 130 0.0 0.0 0.00 0.00 0.00 94 998.6
20180120100847 36 130 0.0 0.0 0.00 0.00 0.00 94 998.7
20180120095344 35 130 0.0 0.0 0.00 0.00 0.00 94 998.9
20180120093838 35 130 0.0 0.0 0.00 0.00 0.00 94 999.0
20180120092336 35 130 0.0 0.0 0.00 0.00 0.00 94 999.0
20180120090837 34 130 0.0 0.0 0.00 0.00 0.00 94 999.1
20180120085335 34 130 0.0 0.0 0.00 0.00 0.00 94 999.1
20180120083832 34 130 0.0 0.0 0.00 0.00 0.00 94 999.1
20180120082330 34 130 0.0 0.0 0.00 0.00 0.00 94 999.2
20180120080829 34 130 0.0 0.0 0.00 0.00 0.00 94 999.6
20180120075331 34 130 0.0 0.0 0.00 0.00 0.00 94 999.4
20180120073825 34 130 0.0 0.0 0.00 0.00 0.00 94 999.4
20180120072325 34 130 0.0 0.0 0.00 0.00 0.00 93 999.5
20180120070830 34 130 0.0 0.0 0.00 0.00 0.00 93 999.9
20180120065325 34 130 0.0 0.0 0.00 0.00 0.00 93 1000.1
20180120063821 34 130 0.0 0.0 0.00 0.00 0.00 93 1000.2
20180120062321 34 158 0.0 0.0 0.00 0.00 0.00 93 1000.6
20180120060817 34 131 0.0 0.0 0.00 0.00 0.00 93 1000.4
20180120055315 34 183 0.0 0.0 0.00 0.00 0.00 93 1000.5
20180120053814 34 173 0.0 0.0 0.00 0.00 0.00 93 1000.9
20180120052312 34 173 0.0 0.0 0.00 0.00 0.00 93 1001.1
20180120050814 34 169 0.0 0.0 0.00 0.00 0.00 93 1001.2
20180120045310 33 159 0.0 0.0 0.00 0.00 0.00 93 1001.5
20180120043809 33 157 0.0 0.0 0.00 0.00 0.00 92 1001.6
20180120042312 33 135 0.0 0.0 0.00 0.00 0.00 92 1001.7
20180120040807 34 167 0.0 0.0 0.00 0.00 0.00 92 1001.9
20180120035308 33 157 0.0 0.0 0.00 0.00 0.00 92 1002.0
20180120033802 33 130 0.0 0.0 0.00 0.00 0.00 92 1002.2
20180120032302 33 144 0.0 0.0 0.00 0.00 0.00 91 1002.4
20180120030800 33 162 0.0 0.0 0.00 0.00 0.00 91 1002.7
20180120025258 34 138 0.0 0.0 0.00 0.00 0.00 90 1002.9
20180120023754 34 173 0.0 0.0 0.00 0.00 0.00 90 1003.1
20180120022255 34 182 0.0 0.0 0.00 0.00 0.00 90 1003.4
20180120020752 34 146 0.0 0.0 0.00 0.00 0.00 90 1003.6
20180120015249 34 122 0.0 0.0 0.00 0.00 0.00 90 1003.6
20180120013749 34 109 0.0 0.0 0.00 0.00 0.00 90 1003.7
20180120012251 34 140 0.0 0.0 0.00 0.00 0.00 90 1003.6
20180120010746 34 177 0.0 0.0 0.00 0.00 0.00 89 1003.8
20180120005245 34 135 1.0 0.0 0.00 0.00 0.00 89 1004.0